• In Belgien
  • Länderverzeichnis
  • Für 7 Tage
  • Wassertemperatur
  • Satellitenkarten
  • Wetterkarte
  • Widgets
  • user-avatar
    Anmelden

    Stündliche Wetter Witebsk

    Heute, 15 August, Mittwoch

    Zeit Temperatur Niederschläge Wind Luftdruck Luftfeuchtigkeit
    00:00 +18°C° 0,1 mm 3 m/S 743 mmHg 94%
    01:00 +18°C° 0,1 mm 3 m/S 742 mmHg 94%
    02:00 +18°C° 0 mm 4 m/S 742 mmHg 94%
    03:00 +18°C° 0,3 mm 4 m/S 742 mmHg 94%
    04:00 +18°C° 0,3 mm 4 m/S 741 mmHg 94%
    05:00 +18°C° 0,3 mm 4 m/S 741 mmHg 94%
    06:00 +19°C° 0 mm 4 m/S 741 mmHg 92%
    07:00 +20°C° 0 mm 4 m/S 741 mmHg 90%
    08:00 +21°C° 0 mm 4 m/S 742 mmHg 88%
    09:00 +21°C° 0 mm 4 m/S 742 mmHg 83%
    10:00 +22°C° 0 mm 5 m/S 742 mmHg 78%
    11:00 +23°C° 0 mm 5 m/S 742 mmHg 72%
    12:00 +23°C° 0 mm 5 m/S 743 mmHg 69%
    13:00 +25°C° 0 mm 5 m/S 743 mmHg 66%
    14:00 +26°C° 0 mm 5 m/S 743 mmHg 62%
    15:00 +25°C° 0,1 mm 4 m/S 743 mmHg 66%
    16:00 +25°C° 0,1 mm 4 m/S 743 mmHg 69%
    17:00 +24°C° 0,1 mm 3 m/S 744 mmHg 72%
    18:00 +22°C° 0,1 mm 3 m/S 744 mmHg 78%
    19:00 +20°C° 0,1 mm 2 m/S 744 mmHg 84%
    20:00 +19°C° 0,1 mm 2 m/S 744 mmHg 89%
    21:00 +18°C° 0 mm 2 m/S 744 mmHg 91%
    22:00 +17°C° 0 mm 2 m/S 744 mmHg 93%
    23:00 +17°C° 0 mm 2 m/S 744 mmHg 95%

    Morgen, 16 August, Donnerstag

    Zeit Temperatur Niederschläge Wind Luftdruck Luftfeuchtigkeit
    00:00 +17°C° 0 mm 2 m/S 744 mmHg 95%
    01:00 +16°C° 0 mm 2 m/S 745 mmHg 96%
    02:00 +16°C° 0 mm 2 m/S 745 mmHg 97%
    03:00 +16°C° 0 mm 2 m/S 745 mmHg 97%
    04:00 +16°C° 0 mm 1 m/S 745 mmHg 97%
    05:00 +15°C° 0 mm 1 m/S 745 mmHg 98%
    06:00 +18°C° 0 mm 1 m/S 746 mmHg 94%
    07:00 +19°C° 0 mm 1 m/S 746 mmHg 91%
    08:00 +20°C° 0 mm 1 m/S 746 mmHg 87%
    09:00 +20°C° 0,1 mm 2 m/S 747 mmHg 83%
    10:00 +21°C° 0,1 mm 2 m/S 747 mmHg 79%
    11:00 +23°C° 0,1 mm 2 m/S 747 mmHg 75%
    12:00 +23°C° 0,6 mm 2 m/S 747 mmHg 74%
    13:00 +24°C° 0,6 mm 3 m/S 748 mmHg 73%
    14:00 +24°C° 0,6 mm 3 m/S 748 mmHg 72%
    15:00 +24°C° 0,3 mm 3 m/S 748 mmHg 73%
    16:00 +22°C° 0,3 mm 3 m/S 748 mmHg 73%
    17:00 +22°C° 0,3 mm 3 m/S 748 mmHg 74%
    18:00 +20°C° 0 mm 3 m/S 748 mmHg 80%
    19:00 +19°C° 0 mm 2 m/S 748 mmHg 86%
    20:00 +17°C° 0 mm 2 m/S 749 mmHg 91%
    21:00 +16°C° 0 mm 2 m/S 749 mmHg 93%
    22:00 +16°C° 0 mm 2 m/S 749 mmHg 94%
    23:00 +15°C° 0 mm 2 m/S 749 mmHg 96%

    übermorgen, 17 August, Freitag

    Zeit Temperatur Niederschläge Wind Luftdruck Luftfeuchtigkeit
    00:00 +15°C° 0 mm 2 m/S 749 mmHg 96%
    01:00 +14°C° 0 mm 1 m/S 749 mmHg 96%
    02:00 +14°C° 0 mm 1 m/S 749 mmHg 97%
    03:00 +14°C° 0 mm 1 m/S 750 mmHg 97%
    04:00 +14°C° 0 mm 1 m/S 750 mmHg 97%
    05:00 +14°C° 0 mm 1 m/S 750 mmHg 98%
    06:00 +16°C° 0 mm 1 m/S 750 mmHg 93%
    07:00 +17°C° 0 mm 2 m/S 750 mmHg 89%
    08:00 +19°C° 0 mm 2 m/S 750 mmHg 85%
    09:00 +20°C° 0 mm 2 m/S 750 mmHg 79%
    10:00 +23°C° 0 mm 2 m/S 750 mmHg 73%
    11:00 +24°C° 0 mm 2 m/S 750 mmHg 68%
    12:00 +25°C° 0 mm 2 m/S 750 mmHg 66%
    13:00 +25°C° 0 mm 2 m/S 750 mmHg 64%
    14:00 +26°C° 0 mm 2 m/S 750 mmHg 62%
    15:00 +26°C° 0,1 mm 2 m/S 750 mmHg 64%
    16:00 +26°C° 0,1 mm 2 m/S 750 mmHg 65%
    17:00 +26°C° 0,1 mm 2 m/S 750 mmHg 67%
    18:00 +24°C° 0 mm 2 m/S 750 mmHg 73%
    19:00 +21°C° 0 mm 2 m/S 750 mmHg 80%
    20:00 +19°C° 0 mm 2 m/S 750 mmHg 86%
    21:00 +18°C° 0 mm 2 m/S 750 mmHg 88%
    22:00 +18°C° 0 mm 2 m/S 750 mmHg 90%
    23:00 +17°C° 0 mm 2 m/S 750 mmHg 91%

    18 August, Samstag

    Zeit Temperatur Niederschläge Wind Luftdruck Luftfeuchtigkeit
    00:00 +17°C° 0 mm 2 m/S 750 mmHg 92%
    01:00 +16°C° 0 mm 2 m/S 750 mmHg 93%
    02:00 +16°C° 0 mm 2 m/S 750 mmHg 94%
    03:00 +15°C° 0 mm 2 m/S 750 mmHg 94%
    04:00 +15°C° 0 mm 2 m/S 750 mmHg 95%
    05:00 +15°C° 0 mm 2 m/S 750 mmHg 96%
    06:00 +17°C° 0 mm 2 m/S 750 mmHg 90%
    07:00 +18°C° 0 mm 2 m/S 750 mmHg 85%
    08:00 +20°C° 0 mm 3 m/S 750 mmHg 79%
    09:00 +21°C° 0 mm 3 m/S 750 mmHg 74%
    10:00 +24°C° 0 mm 3 m/S 750 mmHg 69%
    11:00 +26°C° 0 mm 3 m/S 750 mmHg 63%
    12:00 +26°C° 0 mm 3 m/S 750 mmHg 62%
    13:00 +27°C° 0 mm 3 m/S 750 mmHg 60%
    14:00 +27°C° 0 mm 3 m/S 749 mmHg 59%
    15:00 +27°C° 0,1 mm 3 m/S 749 mmHg 62%
    16:00 +26°C° 0,1 mm 3 m/S 749 mmHg 65%
    17:00 +26°C° 0,1 mm 3 m/S 749 mmHg 69%
    18:00 +24°C° 0,1 mm 2 m/S 749 mmHg 75%
    19:00 +23°C° 0,1 mm 2 m/S 749 mmHg 82%
    20:00 +20°C° 0,1 mm 2 m/S 749 mmHg 89%
    21:00 +19°C° 0 mm 2 m/S 749 mmHg 90%
    22:00 +19°C° 0 mm 2 m/S 749 mmHg 91%
    23:00 +19°C° 0 mm 1 m/S 749 mmHg 93%

    19 August, Sonntag

    Zeit Temperatur Niederschläge Wind Luftdruck Luftfeuchtigkeit
    00:00 +18°C° 0 mm 2 m/S 749 mmHg 93%
    01:00 +17°C° 0 mm 2 m/S 749 mmHg 94%
    02:00 +17°C° 0 mm 2 m/S 749 mmHg 94%
    03:00 +17°C° 0,1 mm 2 m/S 749 mmHg 94%
    04:00 +18°C° 0,1 mm 1 m/S 749 mmHg 94%
    05:00 +16°C° 0,1 mm 1 m/S 749 mmHg 94%
    06:00 +19°C° 0,1 mm 1 m/S 749 mmHg 90%
    07:00 +20°C° 0,1 mm 1 m/S 749 mmHg 87%
    08:00 +21°C° 0,1 mm 1 m/S 749 mmHg 83%
    09:00 +23°C° 0,3 mm 1 m/S 748 mmHg 79%
    10:00 +24°C° 0,3 mm 2 m/S 748 mmHg 74%
    11:00 +25°C° 0,3 mm 2 m/S 748 mmHg 70%
    12:00 +26°C° 0,7 mm 2 m/S 748 mmHg 68%
    13:00 +26°C° 0,7 mm 2 m/S 748 mmHg 66%
    14:00 +27°C° 0,7 mm 2 m/S 748 mmHg 64%
    15:00 +26°C° 0,2 mm 2 m/S 747 mmHg 66%
    16:00 +26°C° 0,2 mm 3 m/S 747 mmHg 68%
    17:00 +26°C° 0,2 mm 3 m/S 747 mmHg 70%
    18:00 +24°C° 0,1 mm 3 m/S 747 mmHg 74%
    19:00 +21°C° 0,1 mm 2 m/S 748 mmHg 79%
    20:00 +19°C° 0,1 mm 2 m/S 748 mmHg 83%
    21:00 +18°C° 0 mm 2 m/S 748 mmHg 84%
    22:00 +17°C° 0 mm 2 m/S 748 mmHg 86%
    23:00 +16°C° 0 mm 2 m/S 748 mmHg 87%

    20 August, Montag

    Zeit Temperatur Niederschläge Wind Luftdruck Luftfeuchtigkeit
    00:00 +16°C° 0 mm 2 m/S 748 mmHg 89%
    01:00 +16°C° 0 mm 2 m/S 748 mmHg 90%
    02:00 +16°C° 0 mm 1 m/S 748 mmHg 92%
    03:00 +16°C° 0,1 mm 1 m/S 748 mmHg 93%
    04:00 +16°C° 0,1 mm 1 m/S 748 mmHg 95%
    05:00 +16°C° 0,1 mm 1 m/S 748 mmHg 96%
    06:00 +17°C° 0,1 mm 2 m/S 749 mmHg 94%
    07:00 +17°C° 0,1 mm 2 m/S 749 mmHg 92%
    08:00 +18°C° 0,1 mm 2 m/S 749 mmHg 91%
    09:00 +19°C° 0,1 mm 2 m/S 749 mmHg 85%
    10:00 +19°C° 0,1 mm 2 m/S 749 mmHg 79%
    11:00 +20°C° 0,1 mm 2 m/S 749 mmHg 73%
    12:00 +21°C° 0,1 mm 2 m/S 749 mmHg 68%
    13:00 +21°C° 0,1 mm 2 m/S 749 mmHg 63%
    14:00 +22°C° 0,1 mm 3 m/S 749 mmHg 59%
    15:00 +23°C° 0 mm 2 m/S 749 mmHg 59%
    16:00 +21°C° 0 mm 2 m/S 749 mmHg 60%
    17:00 +21°C° 0 mm 2 m/S 749 mmHg 60%
    18:00 +19°C° 0 mm 2 m/S 749 mmHg 65%
    19:00 +18°C° 0 mm 2 m/S 749 mmHg 70%
    20:00 +16°C° 0 mm 2 m/S 749 mmHg 76%
    21:00 +15°C° 0 mm 1 m/S 749 mmHg 78%
    22:00 +14°C° 0 mm 1 m/S 749 mmHg 80%
    23:00 +14°C° 0 mm 1 m/S 749 mmHg 83%
    Mehr zeigen